[[{"header":{"parameterUnit":"m.s-1","parameterCategory":2,"la1":30.2991,"la2":30.254,"lo1":-89.0895,"lo2":-89.0444,"dy":0.0017,"dx":0.0017,"nx":28,"ny":28,"refTime":"2023-10-06T09:00:00:Z","depth":"0","parameterNumber":2,"parameterNumberName":"U-component_of_CURRENTS"},"data":[0,0,0,0,0,0,0,0,0,0,0,0,0,0,0,0,0,0,0,0,0,0,0,0,0,0,0,0,0,0,0,0,0,0,0,0,0,0,0,0,0,0,0,0,0,0,0,0,0,0,0,0,0,0,0,0,0,0,0.2552,0.2553,0,0.2554,0.2554,0.2553,0.2544,0.2545,0.2545,0.2545,0.2521,0.2521,0.252,0,0,0,0,0,0,0,0,0,0,0,0,0,0.2535,0.2535,0.2552,0.2553,0.2553,0.2554,0.2554,0.2553,0.2544,0.2545,0.2545,0.2545,0.2522,0.2521,0.252,0,0,0,0,0,0,0,0,0,0,0,0,0,0.2536,0.2535,0.2552,0.2552,0.2552,0.2554,0.2554,0.2553,0.2544,0.2545,0.2545,0.2545,0.2522,0.2521,0.252,0.2508,0,0,0.2516,0.2516,0,0,0,0,0,0,0,0,0.2536,0.2536,0.2552,0.2552,0.2553,0.2553,0.2539,0.2538,0.2544,0.2543,0.2545,0.2545,0.2532,0.253,0.2524,0.2507,0.2506,0.2516,0.2515,0.2515,0.2514,0,0,0,0,0,0,0,0.2536,0.2536,0.2548,0.2552,0.2553,0.255,0.255,0.2539,0.2532,0.2543,0.2543,0.2551,0.2532,0.2525,0.2524,0.2505,0.2516,0.2515,0.2514,0.2514,0.2517,0.2518,0,0,0,0,0,0,0.2545,0.2536,0.2548,0.2549,0.255,0.2551,0.255,0.2549,0.2533,0.2532,0.255,0.255,0.2527,0.2525,0.2523,0.2546,0.2515,0.2514,0.2513,0.2516,0.2517,0.2518,0,0,0,0,0,0,0.2544,0.2546,0.2548,0.2547,0.2547,0.2551,0.255,0.2549,0.255,0.254,0.2538,0.2553,0.2527,0.2524,0.2523,0.2544,0.2513,0.2512,0.2515,0.2516,0.2517,0.2568,0,0,0,0,0,0,0.2544,0.2545,0.2544,0.2547,0.2548,0.2558,0.255,0.2549,0.2556,0.2556,0.2541,0.2539,0.2527,0.2525,0.2522,0.2541,0.2511,0.2514,0.2516,0.2517,0.2565,0.2571,0.2575,0,0,0,0,0,0.2543,0.2539,0.2543,0.2545,0.2547,0.2558,0.2558,0.2559,0.2556,0.2559,0.2552,0.254,0.2533,0.2525,0.2521,0.254,0.2514,0.2515,0.2517,0.2563,0.257,0.2575,0,0,0,0,0,0,0.2524,0.2539,0.2543,0.2542,0.2556,0.2559,0.2559,0.2563,0.2559,0.2558,0.2544,0.2541,0.2551,0.2536,0.2528,0.2546,0.2523,0.2524,0.256,0.2566,0.2571,0.2581,0.251,0,0,0,0,0,0.2523,0.2527,0.2543,0.2543,0.255,0.2556,0.256,0.2566,0.2566,0.2564,0.2556,0.255,0.2554,0.2552,0.2548,0.2551,0.2563,0.2563,0.2568,0.2572,0.2579,0.2614,0.2624,0.2524,0.2524,0.2524,0,0,0.2516,0.2525,0.2526,0.254,0.2546,0.2561,0.2557,0.2569,0.2582,0.2562,0.2567,0.2566,0.2559,0.257,0.2573,0.256,0.261,0.2575,0.2578,0.2583,0.2617,0.2627,0.2636,0.2525,0.2525,0.2524,0,0,0.2508,0.2513,0.2516,0.2533,0.2554,0.2563,0.2571,0.2582,0.2586,0.2596,0.2592,0.2605,0.2595,0.2604,0.2606,0.2634,0.2636,0.2632,0.2664,0.2699,0.2708,0.2715,0.2757,0.2768,0.2633,0.2633,0.2633,0,0.2501,0.2506,0.252,0.2534,0.2551,0.2568,0.2584,0.2592,0.2602,0.2616,0.2604,0.2624,0.2615,0.2646,0.2658,0.2647,0.2668,0.2643,0.2707,0.2715,0.2722,0.2762,0.2774,0.2636,0.2636,0.2635,0.2635,0,0.2498,0.251,0.2514,0.2541,0.2562,0.2577,0.2604,0.2619,0.2629,0.2645,0.2676,0.2672,0.2688,0.269,0.2681,0.2731,0.2732,0.2712,0.2694,0.2735,0.2775,0.2786,0.264,0.2639,0.2638,0.2637,0,0,0.2453,0.2504,0.2501,0.2524,0.2569,0.2583,0.2618,0.2656,0.2683,0.2697,0.2734,0.2747,0.2757,0.2759,0.2757,0.2784,0.2855,0.2772,0.2772,0.2818,0.2945,0.2949,0.2961,0.2848,0.285,0.2852,0.2958,0,0.2444,0.247,0.2504,0.2536,0.2554,0.2601,0.2635,0.2677,0.2707,0.2744,0.2768,0.2795,0.278,0.2793,0.2823,0.2846,0.2884,0.2829,0.2893,0.2896,0.2898,0.2974,0.28,0.288,0.2968,0.297,0.2972,0,0.2417,0.2445,0.2473,0.2545,0.2558,0.2584,0.265,0.2685,0.2755,0.2786,0.2831,0.2848,0.2902,0.2871,0.2951,0.2919,0.2941,0.2955,0.2959,0.2951,0.292,0.285,0.2897,0.281,0.2989,0.2987,0.2986,0,0.2361,0.2419,0.2442,0.2463,0.2545,0.2572,0.2615,0.269,0.2731,0.281,0.2853,0.2915,0.2951,0.2989,0.3027,0.2996,0.3114,0.307,0.3099,0.31,0.2959,0.2944,0.2931,0.3132,0.3132,0.3132,0.3132,0,0.2328,0.2343,0.2415,0.2425,0.2466,0.2538,0.2587,0.2647,0.2737,0.2798,0.2864,0.2921,0.2983,0.3051,0.3068,0.3137,0.3154,0.3132,0.3136,0.2973,0.2959,0.2882,0.285,0.3136,0.3135,0.3134,0.3134,0,0.2257,0.2301,0.2333,0.2413,0.2436,0.2461,0.2561,0.2602,0.2702,0.2784,0.2815,0.2946,0.3054,0.3117,0.32,0.3197,0.3158,0.3263,0.308,0.3061,0.2995,0.2972,0.29,0.2819,0.3314,0.3315,0.3316,0,0.2222,0.2231,0.2301,0.2321,0.2354,0.2405,0.2446,0.2559,0.2614,0.2793,0.2831,0.2978,0.3065,0.3213,0.3235,0.3299,0.3196,0.3181,0.3087,0.2997,0.2975,0.2863,0.2791,0.2922,0.2919,0.2917,0.2915,0,0.2166,0.2189,0.2217,0.2255,0.229,0.2337,0.2407,0.2443,0.2591,0.2671,0.2804,0.2893,0.3067,0.3073,0.3183,0.3187,0.301,0.3143,0.3076,0.2706,0.2553,0.2473,0.2862,0.2897,0.2899,0.29,0.2901,0.2902,0.212,0.2122,0.2159,0.2185,0.2224,0.2256,0.2258,0.2347,0.2417,0.2517,0.2679,0.2761,0.2864,0.2996,0.2994,0.2902,0.2927,0.2796,0.2792,0.2701,0.2563,0.2941,0.2966,0.2968,0.297,0.2971,0.2973,0,0.2059,0.2068,0.2094,0.2112,0.2111,0.2168,0.2221,0.2209,0.2236,0.2366,0.2451,0.2538,0.2564,0.2643,0.2641,0.2543,0.2392,0.2477,0.2236,0.2197,0.2544,0.2467,0.2351,0.2351,0.2351,0.2352,0.2352,0.2352,0.2028,0.2014,0.2021,0.1988,0.2002,0.1967,0.197,0.1975,0.2034,0.207,0.2117,0.2211,0.2374,0.2413,0.2325,0.2261,0.207,0.1973,0.2026,0.2226,0.2252,0.2278,0.2196,0.2025,0.2025,0.1521,0.1517,0.1514]},{"header":{"parameterUnit":"m.s-1","parameterCategory":2,"la1":30.2991,"la2":30.254,"lo1":-89.0895,"lo2":-89.0444,"dy":0.0017,"dx":0.0017,"nx":28,"ny":28,"refTime":"2023-10-06T09:00:00:Z","depth":"0","parameterNumber":3,"parameterNumberName":"V-component_of_CURRENTS"},"data":[0,0,0,0,0,0,0,0,0,0,0,0,0,0,0,0,0,0,0,0,0,0,0,0,0,0,0,0,0,0,0,0,0,0,0,0,0,0,0,0,0,0,0,0,0,0,0,0,0,0,0,0,0,0,0,0,0,0,-0.0501,-0.0502,0,-0.0549,-0.0549,-0.0549,-0.0573,-0.0573,-0.0573,-0.0573,-0.0618,-0.0619,-0.062,0,0,0,0,0,0,0,0,0,0,0,0,0,-0.0441,-0.0442,-0.0501,-0.0502,-0.0502,-0.0548,-0.0549,-0.055,-0.0573,-0.0573,-0.0573,-0.0573,-0.0617,-0.0618,-0.062,0,0,0,0,0,0,0,0,0,0,0,0,0,-0.0474,-0.0442,-0.0501,-0.0521,-0.0523,-0.0548,-0.0549,-0.055,-0.0573,-0.0573,-0.0573,-0.0573,-0.0617,-0.0618,-0.062,-0.0626,0,0,-0.0625,-0.0625,0,0,0,0,0,0,0,0,-0.0473,-0.0476,-0.0517,-0.0519,-0.0522,-0.0556,-0.0544,-0.0576,-0.0573,-0.0552,-0.0573,-0.0573,-0.0597,-0.0601,-0.0607,-0.0628,-0.063,-0.0625,-0.0626,-0.0627,-0.0627,0,0,0,0,0,0,0,-0.047,-0.0475,-0.0518,-0.0518,-0.0521,-0.0531,-0.0536,-0.055,-0.0572,-0.0554,-0.0556,-0.0564,-0.0599,-0.0606,-0.0609,-0.0631,-0.0625,-0.0626,-0.0627,-0.0628,-0.0698,-0.0699,0,0,0,0,0,0,-0.0466,-0.0472,-0.0517,-0.052,-0.0499,-0.0532,-0.0537,-0.0544,-0.0572,-0.0577,-0.0564,-0.0565,-0.0603,-0.0607,-0.061,-0.063,-0.0627,-0.0628,-0.0629,-0.0697,-0.0698,-0.0699,0,0,0,0,0,0,-0.0465,-0.047,-0.0515,-0.0498,-0.0505,-0.0533,-0.054,-0.0545,-0.0552,-0.058,-0.0584,-0.0567,-0.0603,-0.0608,-0.0626,-0.0631,-0.0629,-0.063,-0.0696,-0.0698,-0.0699,-0.0662,0,0,0,0,0,0,-0.0463,-0.0469,-0.047,-0.0498,-0.0506,-0.0524,-0.054,-0.0546,-0.0557,-0.0559,-0.0584,-0.0588,-0.0604,-0.0624,-0.0628,-0.0633,-0.0631,-0.0695,-0.0697,-0.0698,-0.0662,-0.0662,-0.0662,0,0,0,0,0,-0.0461,-0.0456,-0.0469,-0.0475,-0.0507,-0.0524,-0.0528,-0.0548,-0.0557,-0.0556,-0.0579,-0.0588,-0.0638,-0.0625,-0.063,-0.0636,-0.0694,-0.0696,-0.0698,-0.0662,-0.0662,-0.0662,0,0,0,0,0,0,-0.0424,-0.0459,-0.0474,-0.0479,-0.05,-0.0528,-0.0527,-0.0546,-0.0563,-0.0561,-0.059,-0.0596,-0.0618,-0.0635,-0.062,-0.0666,-0.0671,-0.0674,-0.0642,-0.0642,-0.0642,-0.0607,-0.0633,0,0,0,0,0,-0.0419,-0.0427,-0.0461,-0.0463,-0.0471,-0.05,-0.0509,-0.0522,-0.0544,-0.0551,-0.0573,-0.0601,-0.0631,-0.0641,-0.0665,-0.0681,-0.0688,-0.0694,-0.0694,-0.0693,-0.067,-0.0703,-0.0702,-0.0706,-0.0706,-0.0706,0,0,-0.0404,-0.0425,-0.0428,-0.0456,-0.0471,-0.0475,-0.0505,-0.0511,-0.0514,-0.0553,-0.056,-0.0597,-0.0636,-0.0658,-0.067,-0.0671,-0.0697,-0.0696,-0.0695,-0.0672,-0.0704,-0.0704,-0.0703,-0.0707,-0.0707,-0.0707,0,0,-0.037,-0.0396,-0.0388,-0.0406,-0.0429,-0.0449,-0.0451,-0.048,-0.0492,-0.0508,-0.0546,-0.0583,-0.0617,-0.0651,-0.0672,-0.0687,-0.0696,-0.0703,-0.0668,-0.0701,-0.07,-0.0699,-0.0701,-0.0701,-0.0701,-0.0701,-0.0701,0,-0.0346,-0.0349,-0.0387,-0.0385,-0.0393,-0.0436,-0.0425,-0.0445,-0.0477,-0.0484,-0.0503,-0.0573,-0.0612,-0.0646,-0.0658,-0.0684,-0.069,-0.0662,-0.0697,-0.0697,-0.0697,-0.0699,-0.0699,-0.07,-0.07,-0.07,-0.07,0,-0.0308,-0.0314,-0.0308,-0.0324,-0.0338,-0.0335,-0.0372,-0.0382,-0.0407,-0.0432,-0.0468,-0.0529,-0.0567,-0.0603,-0.0632,-0.066,-0.066,-0.0692,-0.0689,-0.0693,-0.0697,-0.0697,-0.0698,-0.0698,-0.0699,-0.0699,0,0,-0.0233,-0.0274,-0.0268,-0.0271,-0.0305,-0.0307,-0.0315,-0.0333,-0.0329,-0.038,-0.0382,-0.0463,-0.0499,-0.0526,-0.0583,-0.0618,-0.0637,-0.0646,-0.0649,-0.063,-0.0679,-0.0627,-0.0623,-0.0672,-0.0672,-0.0673,-0.0678,0,-0.0184,-0.0171,-0.0207,-0.019,-0.0186,-0.0231,-0.0232,-0.0257,-0.0287,-0.0301,-0.0376,-0.0404,-0.047,-0.0491,-0.0537,-0.0612,-0.0637,-0.063,-0.0691,-0.0692,-0.0632,-0.0622,-0.0553,-0.0548,-0.0679,-0.0679,-0.0679,0,-0.0124,-0.0128,-0.0104,-0.0126,-0.0126,-0.0121,-0.0127,-0.0137,-0.0177,-0.0203,-0.0249,-0.0304,-0.0367,-0.0424,-0.0529,-0.0518,-0.0583,-0.0643,-0.0645,-0.0603,-0.0641,-0.0568,-0.0544,-0.0661,-0.068,-0.068,-0.068,0,-0.0042,-0.0052,-0.0031,-0.0038,-0.0066,-0.0056,-0.0067,-0.0097,-0.0091,-0.0137,-0.0136,-0.0224,-0.0254,-0.0358,-0.0475,-0.0502,-0.0574,-0.0634,-0.0644,-0.0641,-0.0595,-0.0587,-0.0673,-0.0693,-0.0693,-0.0693,-0.0693,0,0.0023,0.0041,0.0012,0.0025,0.0061,0.0016,0.0052,0.0025,0.0007,0.0034,-0.0075,-0.0066,-0.0238,-0.0302,-0.0428,-0.0514,-0.0538,-0.0615,-0.0636,-0.058,-0.0571,-0.0681,-0.0759,-0.0693,-0.0693,-0.0693,-0.0693,0,0.0102,0.0083,0.0108,0.0096,0.01,0.0128,0.0132,0.0157,0.0123,0.0157,0.015,0.0064,-0.0012,-0.0168,-0.0322,-0.0429,-0.0582,-0.0567,-0.0469,-0.0478,-0.0597,-0.0674,-0.0751,-0.0793,-0.0577,-0.0576,-0.0575,0,0.0137,0.016,0.0174,0.02,0.0198,0.0226,0.0254,0.0226,0.0256,0.0251,0.0284,0.0222,0.0211,0.0013,-0.018,-0.0354,-0.0509,-0.0425,-0.0475,-0.0569,-0.0673,-0.0738,-0.0773,-0.0405,-0.0402,-0.04,-0.0399,0,0.0203,0.0215,0.0233,0.029,0.0328,0.0365,0.0401,0.0447,0.0436,0.0481,0.0531,0.0527,0.0359,0.0218,-0.0027,-0.0161,-0.0475,-0.0389,-0.0527,-0.056,-0.0596,-0.0656,-0.0426,-0.0381,-0.0383,-0.0384,-0.0385,-0.0386,0.0257,0.0287,0.0322,0.0377,0.0426,0.0496,0.0547,0.0607,0.0693,0.077,0.0749,0.0788,0.0548,0.0238,0.0039,-0.0282,-0.034,-0.0404,-0.0492,-0.0551,-0.0581,-0.0285,-0.0243,-0.0244,-0.0245,-0.0245,-0.0246,0,0.0314,0.0346,0.0401,0.0468,0.0539,0.0547,0.0639,0.0704,0.0839,0.0939,0.1007,0.0953,0.0672,0.0334,-0.0101,-0.0352,-0.047,-0.0512,-0.0615,-0.0651,-0.0415,-0.0397,-0.0336,-0.0336,-0.0336,-0.0336,-0.0335,-0.0335,0.0344,0.0408,0.0433,0.0554,0.0606,0.0702,0.0763,0.0878,0.0971,0.1123,0.1188,0.1194,0.0954,0.0144,-0.0417,-0.0553,-0.076,-0.0773,-0.092,-0.079,-0.0788,-0.0786,-0.0789,-0.0811,-0.0812,-0.1099,-0.1102,-0.1105]}],[{"header":{"parameterUnit":"m.s-1","parameterCategory":2,"la1":30.2991,"la2":30.254,"lo1":-89.0895,"lo2":-89.0444,"dy":0.0017,"dx":0.0017,"nx":28,"ny":28,"refTime":"2023-10-06T09:00:00:Z","depth":"2","parameterNumber":2,"parameterNumberName":"U-component_of_CURRENTS"},"data":[0,0,0,0,0,0,0,0,0,0,0,0,0,0,0,0,0,0,0,0,0,0,0,0,0,0,0,0,0,0,0,0,0,0,0,0,0,0,0,0,0,0,0,0,0,0,0,0,0,0,0,0,0,0,0,0,0,0,0.2221,0.2222,0,0.2223,0.2222,0.2222,0.222,0.2221,0.2221,0.2222,0.2244,0.2244,0.2244,0,0,0,0,0,0,0,0,0,0,0,0,0,0.2195,0.2195,0.2221,0.2222,0.2222,0.2223,0.2222,0.2221,0.222,0.2221,0.2221,0.2222,0.2244,0.2244,0.2244,0,0,0,0,0,0,0,0,0,0,0,0,0,0.2197,0.2195,0.2221,0.2226,0.2227,0.2223,0.2222,0.2221,0.222,0.2221,0.2221,0.2222,0.2244,0.2244,0.2244,0.223,0,0,0.2245,0.2245,0,0,0,0,0,0,0,0,0.2197,0.2197,0.2225,0.2226,0.2227,0.2227,0.2221,0.2227,0.222,0.2216,0.2222,0.2223,0.2244,0.2244,0.2234,0.2231,0.2232,0.2245,0.2245,0.2245,0.2245,0,0,0,0,0,0,0,0.2197,0.2197,0.2216,0.2225,0.2227,0.2221,0.2222,0.2222,0.2221,0.2217,0.2218,0.2228,0.2244,0.2233,0.2234,0.2233,0.2245,0.2245,0.2245,0.2245,0.2306,0.2307,0,0,0,0,0,0,0.2209,0.2197,0.2216,0.2216,0.222,0.2222,0.2222,0.2221,0.2221,0.2223,0.2227,0.2228,0.2233,0.2234,0.2235,0.2295,0.2245,0.2245,0.2245,0.2304,0.2306,0.2308,0,0,0,0,0,0,0.2208,0.221,0.2216,0.2212,0.2213,0.2222,0.2221,0.2221,0.2233,0.223,0.2231,0.2242,0.2233,0.2235,0.2252,0.2293,0.2245,0.2245,0.2303,0.2305,0.2307,0.2366,0,0,0,0,0,0,0.2207,0.2209,0.2211,0.2212,0.2214,0.2229,0.2221,0.2221,0.2239,0.224,0.2243,0.2244,0.2234,0.2251,0.2252,0.2292,0.2246,0.2301,0.2304,0.2306,0.2362,0.237,0.2376,0,0,0,0,0,0.2206,0.2205,0.2211,0.2214,0.2217,0.223,0.223,0.2234,0.224,0.2246,0.2249,0.2245,0.2271,0.2252,0.2252,0.2294,0.2299,0.2303,0.2306,0.2359,0.2368,0.2376,0,0,0,0,0,0,0.2188,0.2205,0.2212,0.2214,0.2232,0.2233,0.2237,0.2247,0.2252,0.2254,0.2251,0.2253,0.2299,0.2279,0.226,0.2321,0.229,0.2294,0.233,0.2339,0.2346,0.235,0.2246,0,0,0,0,0,0.2188,0.2197,0.2213,0.2219,0.2227,0.2237,0.2244,0.2251,0.2258,0.2261,0.2266,0.2277,0.2308,0.2308,0.2329,0.2339,0.2339,0.2371,0.2378,0.2384,0.2389,0.2419,0.2429,0.2319,0.2319,0.2319,0,0,0.2182,0.2196,0.22,0.2218,0.2226,0.224,0.2241,0.2258,0.2277,0.2263,0.2286,0.2311,0.2323,0.2355,0.2372,0.2341,0.2418,0.2389,0.2394,0.2395,0.2424,0.2434,0.2444,0.2321,0.2321,0.2321,0,0,0.2176,0.2189,0.2193,0.2215,0.2241,0.2249,0.2264,0.2278,0.2291,0.2314,0.2331,0.2368,0.2386,0.2407,0.2421,0.2473,0.2472,0.2494,0.2512,0.2542,0.2551,0.2559,0.2578,0.2587,0.2476,0.2476,0.2476,0,0.2166,0.2178,0.2197,0.2215,0.2236,0.226,0.2274,0.2292,0.2313,0.2334,0.233,0.2404,0.2412,0.2472,0.2495,0.2492,0.2506,0.2478,0.2551,0.2559,0.2566,0.2583,0.2593,0.248,0.2479,0.2479,0.2479,0,0.2169,0.2183,0.2191,0.2223,0.2246,0.2266,0.2301,0.2326,0.235,0.2373,0.2445,0.2461,0.2502,0.2524,0.2524,0.2595,0.259,0.2574,0.2527,0.2581,0.2595,0.2604,0.2484,0.2483,0.2482,0.2481,0,0,0.2126,0.2179,0.2183,0.2203,0.2256,0.2272,0.2317,0.2362,0.2402,0.2437,0.2489,0.2552,0.2576,0.2594,0.2614,0.2633,0.2698,0.2626,0.2626,0.2641,0.2767,0.2692,0.2694,0.2702,0.2703,0.2705,0.2758,0,0.2119,0.2149,0.2183,0.2218,0.2235,0.2287,0.2333,0.2385,0.2429,0.2484,0.2532,0.2596,0.26,0.2635,0.2661,0.2703,0.2724,0.2685,0.2715,0.2716,0.264,0.2702,0.2494,0.2518,0.2767,0.2768,0.2769,0,0.2105,0.2132,0.216,0.2226,0.224,0.2271,0.2353,0.2399,0.2489,0.2528,0.2596,0.2643,0.2713,0.2695,0.2777,0.2758,0.2771,0.2784,0.2786,0.2699,0.2657,0.2504,0.2524,0.2783,0.2782,0.2781,0.278,0,0.2062,0.2114,0.2137,0.2161,0.2239,0.227,0.232,0.2411,0.246,0.2564,0.2604,0.2699,0.2743,0.279,0.2825,0.2814,0.2894,0.2873,0.2815,0.281,0.2628,0.2603,0.2921,0.292,0.292,0.292,0.292,0,0.204,0.2059,0.2121,0.2137,0.218,0.2252,0.2311,0.2379,0.2478,0.2534,0.2627,0.2677,0.2771,0.2825,0.285,0.2862,0.2914,0.2835,0.2825,0.2643,0.2619,0.284,0.283,0.2922,0.2922,0.2921,0.2921,0,0.1988,0.2029,0.2056,0.2132,0.2157,0.2192,0.229,0.2336,0.2441,0.2515,0.2553,0.2676,0.2751,0.2821,0.2896,0.2876,0.2904,0.2888,0.2666,0.2628,0.2795,0.2787,0.284,0.2838,0.2836,0.2834,0.2833,0,0.1966,0.1974,0.2035,0.2053,0.2085,0.2145,0.2187,0.2302,0.235,0.2498,0.2523,0.2638,0.2683,0.2769,0.2781,0.2813,0.2868,0.2617,0.2551,0.2805,0.279,0.2785,0.278,0.2339,0.2333,0.2329,0.2326,0,0.1924,0.1943,0.1967,0.1998,0.2031,0.2069,0.2139,0.2166,0.2298,0.2351,0.243,0.2486,0.2584,0.2529,0.258,0.2566,0.2599,0.253,0.2862,0.2388,0.2336,0.232,0.2331,0.2288,0.2292,0.2294,0.2296,0.2298,0.189,0.189,0.1917,0.1937,0.1969,0.1985,0.1984,0.2046,0.2089,0.2153,0.2269,0.2277,0.2333,0.2305,0.2254,0.2229,0.2407,0.2301,0.2312,0.2329,0.2258,0.2206,0.212,0.2122,0.2125,0.2127,0.2129,0,0.1838,0.1843,0.1859,0.1866,0.1855,0.1909,0.1939,0.1913,0.1899,0.1979,0.2018,0.1891,0.1865,0.1926,0.1838,0.1851,0.1823,0.1768,0.1713,0.1754,0.1789,0.1688,0.14,0.1397,0.1395,0.1393,0,0,0.1813,0.1792,0.179,0.1745,0.1755,0.1711,0.1705,0.1674,0.1693,0.1654,0.1646,0.1783,0.1869,0.1603,0.1583,0.1474,0.1594,0.1414,0.2005,0.1981,0.2012,0.211,0.2003,0,0,0,0,0]},{"header":{"parameterUnit":"m.s-1","parameterCategory":2,"la1":30.2991,"la2":30.254,"lo1":-89.0895,"lo2":-89.0444,"dy":0.0017,"dx":0.0017,"nx":28,"ny":28,"refTime":"2023-10-06T09:00:00:Z","depth":"2","parameterNumber":3,"parameterNumberName":"V-component_of_CURRENTS"},"data":[0,0,0,0,0,0,0,0,0,0,0,0,0,0,0,0,0,0,0,0,0,0,0,0,0,0,0,0,0,0,0,0,0,0,0,0,0,0,0,0,0,0,0,0,0,0,0,0,0,0,0,0,0,0,0,0,0,0,0.0125,0.0124,0,0.0078,0.0078,0.0077,0.0041,0.0041,0.004,0.004,-0.0014,-0.0015,-0.0017,0,0,0,0,0,0,0,0,0,0,0,0,0,0.0173,0.0173,0.0125,0.0124,0.0124,0.0079,0.0078,0.0077,0.0041,0.0041,0.004,0.004,-0.0014,-0.0015,-0.0017,0,0,0,0,0,0,0,0,0,0,0,0,0,0.0142,0.0172,0.0125,0.01,0.0098,0.0079,0.0078,0.0077,0.0041,0.0041,0.004,0.004,-0.0014,-0.0015,-0.0017,-0.0017,0,0,-0.0022,-0.0023,0,0,0,0,0,0,0,0,0.0144,0.014,0.0104,0.0102,0.0099,0.0065,0.0075,0.0045,0.0041,0.0062,0.004,0.0039,0.0012,0.0008,0.0001,-0.0019,-0.0022,-0.0022,-0.0023,-0.0024,-0.0024,0,0,0,0,0,0,0,0.0146,0.0142,0.0106,0.0104,0.0101,0.0089,0.0084,0.0069,0.004,0.0061,0.0058,0.0053,0.001,0.0002,-0.0001,-0.0023,-0.0022,-0.0024,-0.0025,-0.0025,-0.0079,-0.0079,0,0,0,0,0,0,0.0153,0.0144,0.0108,0.0105,0.0121,0.0088,0.0083,0.0076,0.0041,0.0035,0.0054,0.0052,0.0005,0.0001,-0.0003,-0.0017,-0.0024,-0.0025,-0.0026,-0.0078,-0.0079,-0.0079,0,0,0,0,0,0,0.0154,0.015,0.011,0.0124,0.0118,0.0088,0.0081,0.0076,0.0058,0.0035,0.0029,0.004,0.0005,-0.0001,-0.0017,-0.0019,-0.0026,-0.0028,-0.0078,-0.0079,-0.0079,-0.0036,0,0,0,0,0,0,0.0156,0.0151,0.015,0.0124,0.0117,0.0098,0.0082,0.0075,0.0056,0.0053,0.0022,0.0017,0.0004,-0.0014,-0.0019,-0.0021,-0.0029,-0.0077,-0.0078,-0.0079,-0.0037,-0.0036,-0.0034,0,0,0,0,0,0.0158,0.016,0.015,0.0146,0.0116,0.0098,0.0094,0.0071,0.0056,0.0052,0.0032,0.0017,-0.0023,-0.0016,-0.0021,-0.0024,-0.0077,-0.0078,-0.0079,-0.0038,-0.0036,-0.0034,0,0,0,0,0,0,0.0184,0.0156,0.0144,0.0138,0.0119,0.0092,0.0088,0.0068,0.0048,0.0046,0.0019,0.0013,-0.0011,-0.0022,-0.0014,-0.0044,-0.0055,-0.0057,-0.0023,-0.0021,-0.0019,-0.0005,-0.003,0,0,0,0,0,0.0189,0.018,0.0153,0.0149,0.0141,0.0112,0.0101,0.0086,0.0065,0.0055,0.0034,0.001,-0.0018,-0.0022,-0.0048,-0.0052,-0.0065,-0.0061,-0.0059,-0.0057,-0.0051,-0.0072,-0.0071,-0.0082,-0.0082,-0.0082,0,0,0.0198,0.0182,0.0177,0.0154,0.0138,0.0133,0.0104,0.0091,0.0087,0.0054,0.0043,0.0009,-0.0022,-0.0035,-0.0046,-0.0041,-0.0062,-0.0059,-0.0057,-0.0052,-0.0073,-0.0071,-0.007,-0.0083,-0.0083,-0.0083,0,0,0.0216,0.0198,0.0197,0.0184,0.0163,0.0147,0.0141,0.0113,0.0101,0.0085,0.0053,0.0028,-0.0007,-0.0022,-0.0037,-0.004,-0.0064,-0.006,-0.0023,-0.0043,-0.0042,-0.0041,-0.0053,-0.0053,-0.0044,-0.0044,-0.0044,0,0.0231,0.0226,0.0196,0.0195,0.0192,0.0154,0.0159,0.0141,0.0112,0.011,0.0087,0.003,0.0002,-0.0011,-0.0018,-0.0034,-0.0051,-0.0024,-0.0039,-0.0038,-0.0038,-0.0051,-0.0052,-0.0042,-0.0042,-0.0042,-0.0042,0,0.0247,0.0246,0.0246,0.0233,0.0224,0.0223,0.0198,0.019,0.0165,0.0145,0.0117,0.0076,0.0048,0.0026,0.0002,-0.0012,-0.0027,-0.0044,-0.0038,-0.0034,-0.0048,-0.005,-0.0039,-0.004,-0.004,-0.0041,0,0,0.028,0.0262,0.0264,0.0271,0.0247,0.0247,0.0243,0.0234,0.0239,0.0195,0.0199,0.0136,0.0108,0.0088,0.0052,0.0034,0.0015,-0.0001,-0.0003,-0.0002,-0.0027,-0.0027,-0.0029,-0.0007,-0.0007,-0.0007,-0.0035,0,0.0305,0.0319,0.0301,0.0321,0.0328,0.0304,0.0306,0.0293,0.0272,0.0266,0.0216,0.0195,0.0134,0.0123,0.0091,0.0032,0.0011,0.0025,-0.0041,-0.0042,-0.0034,-0.0031,-0.0011,-0.0034,-0.0037,-0.0038,-0.0038,0,0.033,0.0338,0.0361,0.0373,0.0375,0.0382,0.0392,0.0391,0.037,0.0353,0.0321,0.0275,0.0238,0.0184,0.0097,0.0106,0.0041,-0.0007,-0.0009,-0.0024,-0.0046,-0.0041,-0.0037,-0.0041,-0.0041,-0.0041,-0.004,0,0.0373,0.0385,0.0409,0.041,0.0412,0.0428,0.0432,0.0421,0.0434,0.0414,0.0416,0.0353,0.0333,0.024,0.0131,0.0112,0.0038,0.0005,-0.0055,-0.0055,-0.0057,-0.0057,-0.0058,-0.0058,-0.0058,-0.0058,-0.0057,0,0.0408,0.043,0.0434,0.0449,0.049,0.0475,0.0517,0.051,0.0513,0.0543,0.0465,0.0476,0.0342,0.028,0.0166,0.0059,0.0066,-0.0046,-0.0062,-0.0043,-0.0041,-0.0065,-0.0066,-0.0059,-0.0058,-0.0058,-0.0058,0,0.0447,0.0445,0.0481,0.0499,0.0511,0.0542,0.0579,0.0609,0.0596,0.0636,0.0635,0.0576,0.0496,0.036,0.0227,0.0121,0.0011,-0.0031,0.0005,-0.0006,-0.008,-0.0078,-0.01,-0.01,-0.01,-0.0101,-0.0101,0,0.0463,0.0485,0.0524,0.0554,0.0565,0.0609,0.0645,0.0654,0.0693,0.0706,0.0736,0.0672,0.0641,0.0444,0.0254,0.0072,0.0031,-0.0031,-0.0069,-0.007,-0.0084,-0.0082,-0.008,-0.0056,-0.0056,-0.0056,-0.0056,0,0.0502,0.0517,0.0547,0.0607,0.0655,0.0709,0.0764,0.081,0.0832,0.0863,0.0897,0.0875,0.0691,0.0513,0.0262,0.0139,-0.0003,-0.0033,-0.0039,-0.0046,-0.0031,-0.0044,-0.0043,-0.0054,-0.0054,-0.0054,-0.0054,-0.0054,0.0533,0.0563,0.0606,0.0665,0.0722,0.0798,0.0853,0.0917,0.099,0.1031,0.1018,0.0975,0.0777,0.0452,0.0239,0.0011,0.0018,-0.0072,-0.0072,-0.0072,-0.006,-0.0045,-0.0068,-0.0069,-0.0069,-0.0069,-0.0069,0,0.0566,0.0601,0.0659,0.073,0.0798,0.0822,0.0923,0.0975,0.1069,0.1101,0.1116,0.0926,0.0725,0.0484,0.015,-0.0044,-0.0065,-0.0107,-0.0097,-0.0096,-0.0096,-0.0086,-0.0101,-0.0102,-0.0103,-0.0103,0,0,0.0584,0.0641,0.067,0.0778,0.0831,0.0925,0.0985,0.1061,0.1103,0.1134,0.1105,0.1054,0.0783,0.0531,0.0272,0.0077,0.0032,0.0042,0.0092,0.0137,0.0139,-0.0046,-0.0024,0,0,0,0,0]}],[{"header":{"parameterUnit":"m.s-1","parameterCategory":2,"la1":30.2991,"la2":30.254,"lo1":-89.0895,"lo2":-89.0444,"dy":0.0017,"dx":0.0017,"nx":28,"ny":28,"refTime":"2023-10-06T09:00:00:Z","depth":"4","parameterNumber":2,"parameterNumberName":"U-component_of_CURRENTS"},"data":[0,0,0,0,0,0,0,0,0,0,0,0,0,0,0,0,0,0,0,0,0,0,0,0,0,0,0,0,0,0,0,0,0,0,0,0,0,0,0,0,0,0,0,0,0,0,0,0,0,0,0,0,0,0,0,0,0,0,0.1267,0.1267,0,0.1289,0.1289,0.1289,0.131,0.1311,0.1311,0.1311,0.1348,0.1348,0.1349,0,0,0,0,0,0,0,0,0,0,0,0,0,0.1208,0.1209,0.1267,0.1268,0.1268,0.1289,0.1289,0.1289,0.131,0.1311,0.1311,0.1312,0.1348,0.1348,0.1349,0,0,0,0,0,0,0,0,0,0,0,0,0,0.1231,0.1209,0.1267,0.1282,0.1283,0.1289,0.1289,0.1289,0.131,0.1311,0.1311,0.1312,0.1347,0.1348,0.1349,0.1344,0,0,0.1352,0.1352,0,0,0,0,0,0,0,0,0.123,0.1233,0.1279,0.1281,0.1282,0.1298,0.1282,0.1309,0.131,0.1299,0.1311,0.1312,0.1333,0.1335,0.1336,0.1346,0.1347,0.1352,0.1353,0.1353,0.1353,0,0,0,0,0,0,0,0.1228,0.1232,0.1275,0.1279,0.1282,0.1275,0.1279,0.1287,0.1312,0.13,0.1302,0.1306,0.1334,0.1335,0.1337,0.1348,0.1352,0.1353,0.1354,0.1354,0.1406,0.1406,0,0,0,0,0,0,0.1229,0.1231,0.1274,0.1275,0.1258,0.1276,0.128,0.1292,0.1312,0.1315,0.1305,0.1307,0.1333,0.1336,0.1339,0.1397,0.1353,0.1354,0.1355,0.1405,0.1406,0.1407,0,0,0,0,0,0,0.1228,0.1233,0.1273,0.1254,0.1259,0.1277,0.1289,0.1292,0.1322,0.1316,0.132,0.1336,0.1334,0.1337,0.1364,0.1397,0.1354,0.1355,0.1404,0.1405,0.1406,0.1474,0,0,0,0,0,0,0.1226,0.1233,0.1257,0.1254,0.126,0.1295,0.1289,0.1292,0.1322,0.1325,0.1343,0.1345,0.1335,0.1363,0.1365,0.1397,0.1356,0.1403,0.1405,0.1406,0.1471,0.1477,0.1483,0,0,0,0,0,0.1224,0.1248,0.1258,0.1264,0.1288,0.1297,0.1299,0.1312,0.1324,0.1341,0.135,0.1346,0.1374,0.1364,0.1367,0.14,0.1402,0.1404,0.1406,0.1468,0.1476,0.1483,0,0,0,0,0,0,0.1239,0.1253,0.1263,0.1293,0.1304,0.1301,0.1324,0.1331,0.1351,0.1364,0.1357,0.136,0.1397,0.1385,0.1374,0.1417,0.1387,0.139,0.1434,0.1441,0.1447,0.1457,0.1357,0,0,0,0,0,0.1253,0.1276,0.1283,0.1311,0.1321,0.1329,0.1342,0.135,0.136,0.1371,0.138,0.1389,0.1401,0.1412,0.1418,0.1442,0.1441,0.1463,0.1469,0.1475,0.1483,0.151,0.152,0.1413,0.1413,0.1413,0,0,0.1264,0.1278,0.1291,0.1316,0.1329,0.1344,0.1339,0.1367,0.1386,0.1371,0.1411,0.1418,0.1413,0.144,0.1455,0.1438,0.1505,0.1477,0.1482,0.1487,0.1513,0.1523,0.1533,0.1414,0.1414,0.1414,0,0,0.1284,0.1315,0.1335,0.1349,0.1375,0.1378,0.1394,0.1408,0.1427,0.1456,0.1453,0.1477,0.1494,0.1495,0.1497,0.154,0.1539,0.1548,0.1588,0.1614,0.1623,0.1632,0.1647,0.1657,0.1548,0.1548,0.1548,0,0.13,0.1325,0.1343,0.1364,0.1378,0.1398,0.1416,0.1436,0.1458,0.1477,0.148,0.1516,0.1518,0.1545,0.1563,0.1556,0.157,0.1562,0.1624,0.1632,0.1639,0.1653,0.1663,0.1551,0.1551,0.1551,0.155,0,0.1321,0.1352,0.1368,0.1399,0.1419,0.1442,0.1463,0.1495,0.1522,0.1536,0.1584,0.1585,0.1607,0.1613,0.1606,0.1658,0.1651,0.1633,0.1609,0.1654,0.1666,0.1674,0.1556,0.1555,0.1554,0.1553,0,0,0.1323,0.1372,0.1381,0.1399,0.144,0.1453,0.1498,0.1533,0.1569,0.1602,0.1642,0.1671,0.1686,0.1689,0.1687,0.171,0.1776,0.1705,0.1704,0.1727,0.1841,0.1736,0.1735,0.1779,0.1781,0.1783,0.1829,0,0.1335,0.1375,0.1397,0.1437,0.1456,0.1489,0.1525,0.1566,0.1606,0.1652,0.1675,0.1716,0.1711,0.1734,0.1761,0.1772,0.1802,0.1765,0.1787,0.1788,0.1695,0.1742,0.1788,0.1836,0.1837,0.1839,0.184,0,0.1339,0.1369,0.1407,0.1454,0.1467,0.1498,0.1561,0.1595,0.1664,0.1699,0.175,0.1773,0.1822,0.1808,0.1863,0.1847,0.186,0.1862,0.1863,0.1747,0.1698,0.1778,0.1855,0.1853,0.1852,0.1851,0.185,0,0.1315,0.137,0.1403,0.1419,0.1477,0.1511,0.1549,0.1618,0.1654,0.174,0.178,0.1836,0.1874,0.1903,0.1925,0.1908,0.1976,0.1943,0.1859,0.1851,0.1902,0.1892,0.199,0.199,0.199,0.1989,0.1989,0,0.1298,0.1328,0.1402,0.1417,0.1462,0.1511,0.1569,0.1618,0.1693,0.1736,0.181,0.1845,0.1907,0.1948,0.1954,0.1935,0.2004,0.1877,0.186,0.1928,0.1921,0.1908,0.1898,0.1991,0.1991,0.199,0.199,0,0.1254,0.1304,0.1344,0.1421,0.1449,0.1484,0.157,0.1606,0.1695,0.1753,0.1786,0.1875,0.1926,0.1968,0.2013,0.196,0.1955,0.1934,0.2016,0.2002,0.1803,0.1796,0.183,0.1827,0.1824,0.1822,0.182,0,0.1231,0.125,0.1338,0.1365,0.1404,0.1468,0.1506,0.1597,0.1631,0.1751,0.1764,0.1858,0.1905,0.1878,0.1937,0.1941,0.192,0.1906,0.1842,0.1809,0.179,0.1787,0.1783,0.1816,0.1815,0.1814,0.1813,0,0.1184,0.1229,0.1263,0.1319,0.1367,0.1405,0.1469,0.1482,0.158,0.1679,0.17,0.1726,0.178,0.1803,0.1831,0.1828,0.1902,0.1876,0.1881,0.182,0.1791,0.1775,0.1774,0.1804,0.1805,0.1806,0.1807,0,0.1155,0.1166,0.122,0.1254,0.131,0.1317,0.1361,0.1394,0.1435,0.1561,0.1568,0.1666,0.1758,0.1747,0.177,0.1764,0.1728,0.1661,0.1676,0.1687,0.1619,0.156,0.1497,0,0,0,0,0,0.1116,0.1116,0.1147,0.117,0.122,0.1251,0.132,0.1365,0.1463,0.1437,0.1494,0.1535,0.1565,0.1618,0.1582,0.1714,0.1741,0.1665,0.1673,0.1751,0.1762,0.1696,0,0,0,0,0,0,0.1089,0.1117,0.1118,0.1093,0.1096,0.1132,0.1174,0.1242,0.1227,0.1337,0.1358,0.1448,0.1499,0.157,0.1554,0.1571,0.1546,0.1731,0.1728,0.1745,0.1755,0.1764,0.17,0,0,0,0,0]},{"header":{"parameterUnit":"m.s-1","parameterCategory":2,"la1":30.2991,"la2":30.254,"lo1":-89.0895,"lo2":-89.0444,"dy":0.0017,"dx":0.0017,"nx":28,"ny":28,"refTime":"2023-10-06T09:00:00:Z","depth":"4","parameterNumber":3,"parameterNumberName":"V-component_of_CURRENTS"},"data":[0,0,0,0,0,0,0,0,0,0,0,0,0,0,0,0,0,0,0,0,0,0,0,0,0,0,0,0,0,0,0,0,0,0,0,0,0,0,0,0,0,0,0,0,0,0,0,0,0,0,0,0,0,0,0,0,0,0,0.0271,0.0271,0,0.0255,0.0255,0.0254,0.0245,0.0245,0.0245,0.0245,0.0231,0.023,0.023,0,0,0,0,0,0,0,0,0,0,0,0,0,0.0294,0.0294,0.0271,0.0271,0.0271,0.0255,0.0255,0.0254,0.0245,0.0245,0.0245,0.0245,0.0231,0.023,0.023,0,0,0,0,0,0,0,0,0,0,0,0,0,0.028,0.0294,0.0271,0.0266,0.0265,0.0255,0.0255,0.0254,0.0245,0.0245,0.0245,0.0245,0.0231,0.023,0.023,0.0223,0,0,0.0227,0.0227,0,0,0,0,0,0,0,0,0.0281,0.0279,0.0266,0.0266,0.0265,0.0253,0.0257,0.0244,0.0245,0.0251,0.0245,0.0245,0.0239,0.0238,0.0232,0.0222,0.0221,0.0227,0.0227,0.0227,0.0226,0,0,0,0,0,0,0,0.0282,0.028,0.0263,0.0266,0.0266,0.0264,0.0262,0.0255,0.0243,0.025,0.025,0.025,0.0239,0.0233,0.0232,0.0221,0.0227,0.0227,0.0226,0.0226,0.0238,0.0238,0,0,0,0,0,0,0.0287,0.0281,0.0264,0.0263,0.0275,0.0263,0.0261,0.0256,0.0243,0.0242,0.025,0.025,0.0234,0.0233,0.0231,0.0249,0.0227,0.0226,0.0226,0.0237,0.0238,0.0239,0,0,0,0,0,0,0.0287,0.0285,0.0265,0.0273,0.0271,0.0263,0.0257,0.0255,0.0255,0.0244,0.0242,0.0252,0.0234,0.0232,0.0234,0.0247,0.0226,0.0225,0.0236,0.0237,0.0238,0.0267,0,0,0,0,0,0,0.0288,0.0285,0.0287,0.0273,0.027,0.0263,0.0257,0.0255,0.0255,0.0254,0.0244,0.0243,0.0234,0.0235,0.0233,0.0246,0.0224,0.0235,0.0237,0.0238,0.0265,0.0269,0.0272,0,0,0,0,0,0.0289,0.0289,0.0287,0.0285,0.0271,0.0263,0.0261,0.0256,0.0255,0.0255,0.0252,0.0243,0.0243,0.0235,0.0233,0.0245,0.0235,0.0236,0.0238,0.0263,0.0268,0.0272,0,0,0,0,0,0,0.03,0.0288,0.0285,0.0282,0.0276,0.0262,0.0264,0.0259,0.0256,0.0259,0.0248,0.0246,0.0254,0.0246,0.0238,0.0254,0.0239,0.024,0.0259,0.0264,0.0267,0.027,0.0224,0,0,0,0,0,0.0304,0.0302,0.0289,0.0289,0.0286,0.0276,0.0274,0.027,0.0264,0.0263,0.0256,0.0255,0.0258,0.0258,0.0255,0.026,0.0239,0.0269,0.0273,0.0276,0.0278,0.0253,0.0254,0.0244,0.0244,0.0244,0,0,0.031,0.0303,0.0302,0.0292,0.0287,0.0288,0.0275,0.0274,0.0279,0.0262,0.0269,0.0265,0.0262,0.027,0.0273,0.0266,0.0268,0.0278,0.0281,0.0281,0.0255,0.0256,0.0257,0.0245,0.0245,0.0245,0,0,0.0319,0.0313,0.0314,0.031,0.0305,0.03,0.0301,0.0291,0.0291,0.0293,0.0289,0.0293,0.029,0.0293,0.0295,0.0316,0.0287,0.0318,0.0338,0.0314,0.0314,0.0315,0.0286,0.0283,0.0321,0.0321,0.0321,0,0.0327,0.0327,0.0314,0.0315,0.0321,0.0308,0.0316,0.0312,0.0305,0.0311,0.0301,0.0307,0.0302,0.0319,0.0329,0.0324,0.0301,0.0321,0.0317,0.0317,0.0317,0.0287,0.0284,0.0322,0.0322,0.0322,0.0322,0,0.0334,0.034,0.0342,0.0341,0.0344,0.0349,0.0344,0.0347,0.0346,0.0343,0.0354,0.0344,0.0349,0.035,0.0345,0.035,0.0331,0.0323,0.0304,0.0319,0.0287,0.0283,0.0324,0.0324,0.0323,0.0323,0,0,0.034,0.0346,0.0349,0.0362,0.0361,0.0367,0.0377,0.0386,0.04,0.0388,0.0402,0.0404,0.0396,0.0397,0.039,0.0371,0.0348,0.0347,0.0345,0.0314,0.0286,0.0259,0.0251,0.0333,0.0332,0.0332,0.0264,0,0.0353,0.0369,0.0369,0.0396,0.0407,0.0407,0.0423,0.0429,0.0429,0.0436,0.0425,0.0434,0.0415,0.042,0.0398,0.0367,0.0338,0.0366,0.0281,0.0278,0.0248,0.0246,0.0331,0.0261,0.026,0.0259,0.0258,0,0.0362,0.0374,0.0401,0.0434,0.044,0.0456,0.0485,0.0498,0.0502,0.05,0.0497,0.0481,0.0469,0.0442,0.0381,0.0397,0.0343,0.0307,0.0303,0.0265,0.0243,0.0243,0.025,0.0251,0.0252,0.0252,0.0253,0,0.0376,0.0401,0.0429,0.0438,0.0466,0.0487,0.0507,0.0521,0.0543,0.0541,0.0548,0.0521,0.0514,0.0446,0.0373,0.0373,0.0289,0.028,0.02,0.0197,0.0229,0.023,0.022,0.022,0.022,0.022,0.022,0,0.0389,0.0414,0.0442,0.0458,0.0504,0.0516,0.0564,0.0573,0.0594,0.0623,0.0587,0.0591,0.0512,0.0456,0.0378,0.0277,0.029,0.02,0.0178,0.0243,0.0246,0.0225,0.0227,0.0218,0.0218,0.0219,0.0219,0,0.0399,0.0415,0.0454,0.0494,0.0512,0.0548,0.0607,0.0639,0.0649,0.0682,0.0683,0.0644,0.0567,0.0474,0.0363,0.029,0.0194,0.0149,0.0223,0.0207,0.0114,0.0118,0.0056,0.0054,0.0053,0.0052,0.0051,0,0.0404,0.0424,0.0481,0.0512,0.0534,0.0589,0.063,0.0664,0.0696,0.0713,0.0727,0.0666,0.0623,0.0448,0.0344,0.0181,0.0155,0.0097,0.0106,0.0112,0.0097,0.0103,0.0109,0.0049,0.0048,0.0048,0.0048,0,0.0417,0.0441,0.0475,0.0535,0.0586,0.0643,0.07,0.0726,0.0764,0.0775,0.0753,0.0666,0.0573,0.0441,0.0309,0.0196,0.0134,0.0083,0.0085,0.0093,0.0103,0.0091,0.0098,0.0043,0.0044,0.0044,0.0044,0,0.0431,0.0456,0.0503,0.0556,0.0621,0.0677,0.0709,0.0742,0.0774,0.0785,0.0776,0.0679,0.0628,0.0447,0.0332,0.0211,0.0178,0.0135,0.0133,0.0137,0.0179,0.0205,0.0154,0,0,0,0,0,0.0439,0.0467,0.0519,0.0578,0.0642,0.068,0.0746,0.0773,0.0806,0.0792,0.0784,0.0695,0.0521,0.0453,0.0325,0.03,0.0154,0.0145,0.0103,0.0018,0.0023,0.0056,0,0,0,0,0,0,0.0443,0.0491,0.0515,0.0586,0.0627,0.0701,0.0745,0.0769,0.0759,0.0771,0.0682,0.0647,0.0481,0.059,0.0317,0.0282,0.0233,0.0071,0.0067,0.0015,0.002,0.0024,0.0059,0,0,0,0,0]}]]